1998-067JU

Last updated on Mon Jun 13 2016 17:36:47 GMT+0000 (Coordinated Universal Time)

1 41570U 98067JU 16165.28884325 .00016427 00000-0 23802-3 0 9994 2 41570 51.6450 77.3672 0002110 88.1132 352.8332 15.56007362 1922

Satellite not in orbit